Date String (YYYY-MM-DD hh:mm:ss) UTC,Instrument flags,Ambient pressure (hPa),Sample flow (lpm),Bypass flow (lpm),Sample temperature (°C),Ambient temperature (°C),ASC tube jacket temperature (°C),LED temperature (°C),Box temperature (°C),Sample RH (%),Span deviation,Mass concentration (μg/m³),Mass concentration (μg/m³),Mass concentration (μg/m³)
DateTimeUTC,F1_M11,P_M11,Q1_M11,Q2_M11,T1_M11,T2_M11,T3_M11,T4_M11,T5_M11,U1_M11,ZSPAN_M11,X0_M11,X2_M11,X1_M11
2021-12-16 20:00:00,,0819.0,5.00,0.00,26.1,25.3,00.0,35.0,27.9,06.9,0000.0,0016.95,0004.21,0002.36
2021-12-16 20:01:00,,0819.0,4.99,0.00,26.1,25.3,00.0,35.0,27.9,06.9,0000.0,0016.14,0004.20,0002.36
2021-12-16 20:02:00,,0819.0,5.01,0.00,26.1,25.3,00.0,35.0,27.9,06.9,0000.0,0016.59,0004.19,0002.36
2021-12-16 20:03:00,,0819.0,4.98,0.00,26.1,25.3,00.0,35.0,28.0,06.8,0000.0,0016.63,0004.17,0002.35
2021-12-16 20:04:00,,0818.9,5.01,0.00,26.1,25.3,00.0,35.0,28.0,06.8,0000.0,0016.04,0004.19,0002.34
2021-12-16 20:05:00,,0819.0,5.00,0.00,26.2,25.3,00.0,35.1,28.0,06.8,0000.0,0016.21,0004.21,0002.34
2021-12-16 20:06:00,,0818.9,4.99,0.00,26.2,25.3,00.0,35.1,28.0,06.8,0000.0,0016.29,0004.23,0002.34
2021-12-16 20:07:00,,0819.0,4.99,0.00,26.2,25.3,00.0,35.1,28.0,06.8,0000.0,0016.61,0004.19,0002.34
2021-12-16 20:08:00,,0818.9,5.01,0.00,26.2,25.3,00.0,35.1,28.0,06.8,0000.0,0016.69,0004.16,0002.33
2021-12-16 20:09:00,,0818.9,4.99,0.00,26.2,25.4,00.0,35.1,28.0,06.8,0000.0,0015.65,0004.19,0002.35
2021-12-16 20:10:00,,0818.9,5.01,0.00,26.2,25.4,00.0,35.1,28.0,06.8,0000.0,0016.78,0004.23,0002.35
2021-12-16 20:11:00,,0818.9,5.01,0.00,26.2,25.4,00.0,35.1,28.0,06.8,0000.0,0016.66,0004.21,0002.34
2021-12-16 20:12:00,,0818.9,4.98,0.00,26.2,25.4,00.0,35.1,28.0,06.8,0000.0,0017.70,0004.15,0002.33
2021-12-16 20:13:00,,0818.8,5.01,0.00,26.2,25.5,00.0,35.1,28.1,06.8,0000.0,0017.33,0004.13,0002.33
2021-12-16 20:14:00,,0818.8,5.00,0.00,26.2,25.5,00.0,35.1,28.1,06.7,0000.0,0017.81,0004.12,0002.35
2021-12-16 20:15:00,,0818.8,4.99,0.00,26.2,25.5,00.0,35.2,28.1,06.7,0000.0,0017.83,0004.04,0002.34
2021-12-16 20:16:00,,0818.8,5.01,0.00,26.3,25.5,00.0,35.2,28.1,06.7,0000.0,0018.57,0004.03,0002.34
2021-12-16 20:17:00,,0818.9,5.01,0.00,26.3,25.5,00.0,35.2,28.1,06.8,0000.0,0017.46,0004.06,0002.36
2021-12-16 20:18:00,,0818.9,4.98,0.00,26.3,25.5,00.0,35.2,28.1,06.7,0000.0,0017.12,0004.08,0002.37
2021-12-16 20:19:00,,0818.8,5.01,0.00,26.3,25.5,00.0,35.2,28.1,06.8,0000.0,0017.46,0004.14,0002.40
2021-12-16 20:20:00,,0818.8,4.98,0.00,26.3,25.4,00.0,35.2,28.1,06.7,0000.0,0017.94,0004.14,0002.39
2021-12-16 20:21:00,,0818.9,5.01,0.00,26.3,25.4,00.0,35.2,28.1,06.7,0000.0,0017.18,0004.12,0002.42
2021-12-16 20:22:00,,0818.9,4.99,0.00,26.3,25.4,00.0,35.2,28.1,06.8,0000.0,0017.48,0004.15,0002.44
2021-12-16 20:23:00,,0818.9,4.99,0.00,26.3,25.4,00.0,35.2,28.0,06.8,0000.0,0016.40,0004.18,0002.47
2021-12-16 20:24:00,,0818.9,5.00,0.00,26.3,25.3,00.0,35.2,28.0,06.8,0000.0,0016.23,0004.18,0002.48
2021-12-16 20:25:00,,0818.8,5.00,0.00,26.2,25.3,00.0,35.2,28.0,06.8,0000.0,0015.48,0004.15,0002.47
2021-12-16 20:26:00,,0818.9,4.99,0.00,26.2,25.3,00.0,35.2,28.0,06.8,0000.0,0015.32,0004.12,0002.49
2021-12-16 20:27:00,,0818.8,5.02,0.00,26.2,25.3,00.0,35.2,28.0,06.8,0000.0,0014.81,0004.11,0002.50
2021-12-16 20:28:00,,0818.8,4.98,0.00,26.2,25.3,00.0,35.2,28.0,06.8,0000.0,0015.26,0004.15,0002.51
2021-12-16 20:29:00,,0818.9,5.01,0.00,26.2,25.3,00.0,35.2,28.0,06.8,0000.0,0015.86,0004.14,0002.51
2021-12-16 20:30:00,,0818.9,4.99,0.00,26.2,25.3,00.0,35.2,28.0,06.7,0000.0,0015.61,0004.14,0002.53
2021-12-16 20:31:00,,0818.9,5.02,0.00,26.2,25.3,00.0,35.2,28.0,06.7,0000.0,0015.13,0004.17,0002.54
2021-12-16 20:32:00,,0818.8,4.99,0.00,26.2,25.3,00.0,35.2,28.0,06.7,0000.0,0015.24,0004.16,0002.54
2021-12-16 20:33:00,,0818.8,5.01,0.00,26.2,25.3,00.0,35.2,28.0,06.7,0000.0,0014.56,0004.15,0002.53
2021-12-16 20:34:00,,0818.8,4.99,0.00,26.2,25.3,00.0,35.2,28.0,06.7,0000.0,0014.76,0004.21,0002.53
2021-12-16 20:35:00,,0818.7,5.01,0.00,26.2,25.3,00.0,35.2,28.0,06.6,0000.0,0015.47,0004.21,0002.52
2021-12-16 20:36:00,,0818.8,5.00,0.00,26.2,25.4,00.0,35.2,28.0,06.6,0000.0,0015.02,0004.25,0002.52
2021-12-16 20:37:00,,0818.8,5.01,0.00,26.2,25.4,00.0,35.2,28.0,06.6,0000.0,0015.87,0004.28,0002.51
2021-12-16 20:38:00,,0818.8,4.99,0.00,26.2,25.3,00.0,35.2,28.0,06.5,0000.0,0016.88,0004.29,0002.50
2021-12-16 20:39:00,,0818.7,4.99,0.00,26.2,25.3,00.0,35.2,28.0,06.5,0000.0,0016.86,0004.24,0002.48
2021-12-16 20:40:00,,0818.7,5.01,0.00,26.2,25.3,00.0,35.2,28.0,06.6,0000.0,0016.77,0004.24,0002.46
2021-12-16 20:41:00,,0818.7,4.99,0.00,26.2,25.3,00.0,35.2,28.0,06.7,0000.0,0016.68,0004.23,0002.45
2021-12-16 20:42:00,,0818.7,5.00,0.00,26.2,25.4,00.0,35.2,28.0,06.7,0000.0,0016.91,0004.20,0002.43
2021-12-16 20:43:00,,0818.7,4.99,0.00,26.2,25.4,00.0,35.2,28.0,06.6,0000.0,0017.43,0004.23,0002.41
2021-12-16 20:44:00,,0818.8,5.01,0.00,26.2,25.4,00.0,35.2,28.0,06.6,0000.0,0018.61,0004.23,0002.41
2021-12-16 20:45:00,,0818.7,4.99,0.00,26.3,25.4,00.0,35.2,28.0,06.6,0000.0,0019.05,0004.17,0002.39
2021-12-16 20:46:00,,0818.8,5.01,0.00,26.3,25.5,00.0,35.2,28.1,06.6,0000.0,0018.27,0004.14,0002.38
2021-12-16 20:47:00,,0818.7,5.00,0.00,26.3,25.5,00.0,35.2,28.1,06.6,0000.0,0017.90,0004.12,0002.39
2021-12-16 20:48:00,,0818.8,5.00,0.00,26.3,25.5,00.0,35.2,28.1,06.6,0000.0,0018.10,0004.14,0002.40
2021-12-16 20:49:00,,0818.7,5.00,0.00,26.3,25.5,00.0,35.2,28.1,06.6,0000.0,0017.48,0004.12,0002.44
2021-12-16 20:50:00,,0818.7,4.99,0.00,26.3,25.6,00.0,35.2,28.1,06.6,0000.0,0017.97,0004.12,0002.45
2021-12-16 20:51:00,,0818.7,5.01,0.00,26.3,25.6,00.0,35.2,28.2,06.5,0000.0,0018.61,0004.15,0002.45
2021-12-16 20:52:00,,0818.6,5.00,0.00,26.4,25.6,00.0,35.2,28.2,06.5,0000.0,0018.41,0004.14,0002.44
2021-12-16 20:53:00,,0818.6,5.00,0.00,26.4,25.5,00.0,35.3,28.2,06.5,0000.0,0019.63,0004.10,0002.44
2021-12-16 20:54:00,,0818.5,5.01,0.00,26.4,25.6,00.0,35.3,28.2,06.5,0000.0,0019.67,0004.07,0002.45
2021-12-16 20:55:00,,0818.5,5.00,0.00,26.4,25.6,00.0,35.3,28.2,06.4,0000.0,0018.88,0004.11,0002.47
2021-12-16 20:56:00,,0818.5,4.99,0.00,26.4,25.6,00.0,35.3,28.2,06.5,0000.0,0019.02,0004.16,0002.49
2021-12-16 20:57:00,,0818.5,5.00,0.00,26.4,25.6,00.0,35.3,28.2,06.5,0000.0,0019.69,0004.20,0002.51
2021-12-16 20:58:00,,0818.4,5.01,0.00,26.4,25.6,00.0,35.3,28.2,06.5,0000.0,0020.47,0004.22,0002.52
2021-12-16 20:59:00,,0818.4,4.99,0.00,26.4,25.6,00.0,35.3,28.2,06.4,0000.0,0020.24,0004.23,0002.52
